Location: Summit Observatory
(39.5293°N, 75.7290°W)
Time: 15:14:53
(UTC-04:00)

Amateur Radio Satellites - All Passes

Search period start: 23 July 2016 14:44
Search period end: 24 July 2016 14:44
Location: Summit Observatory, 39.5293°N, 75.7290°W

Satellite Date Start Highest point End Downlink Frequencies (MHz)
Time Altitude Azimuth
ITAMSAT 1 23 Jul 14:58:27 15:03:39 70° 74° (ENE) 15:08:52 435.822/435.867
AIST 1 23 Jul 14:59:13 15:03:01 32° 283° (WNW) 15:06:51
SWISSCUBE 23 Jul 15:01:57 15:06:30 44° 99° (E) 15:11:01 437.505
CUSAT 1 23 Jul 15:08:06 15:10:29 24° 78° (ENE) 15:13:13 437.405
Oscar 19 23 Jul 15:16:57 15:18:45 12° 270° (W) 15:20:34 437.125/150
AO-85 23 Jul 15:21:27 15:26:52 87° 299° (WNW) 15:32:05 145.980
BEESAT 23 Jul 15:23:42 15:28:28 67° 102° (ESE) 15:33:11 436.000
TISAT 1 23 Jul 15:31:04 15:33:51 17° 294° (WNW) 15:36:37 437.305
ITUPSAT 1 23 Jul 15:43:55 15:48:42 77° 286° (WNW) 15:53:27 437.325
Cosmos 2499 23 Jul 15:52:00 16:00:09 43° 87° (E) 16:08:13 435.465 / 435.565
Gurwin Techsat 1B 23 Jul 16:03:48 16:04:38 10° 272° (W) 16:05:28 435.225
AO-7 23 Jul 16:05:25 16:13:46 75° 254° (WSW) 16:22:11 29.400- 29.500
GONETS M04 23 Jul 16:06:19 16:14:54 70° 93° (E) 16:23:33
DANDE 23 Jul 16:32:33 16:35:08 65° 261° (W) 16:37:48 436.750
KKS-1 23 Jul 16:39:08 16:43:29 48° 100° (E) 16:47:49 437.445
SWISSCUBE 23 Jul 16:40:36 16:43:57 19° 295° (WNW) 16:47:18 437.505
ITAMSAT 1 23 Jul 16:41:09 16:43:35 13° 269° (W) 16:46:03 435.822/435.867
SO-50 23 Jul 16:42:09 16:43:34 11° 37° (NE) 16:44:59 436.795
MOZHAYETS 4 23 Jul 16:42:32 16:47:04 57° 100° (E) 16:51:32
NOAA 15 23 Jul 16:44:24 16:46:00 11° 59° (ENE) 16:47:37 137.62
RS-15 23 Jul 16:46:21 16:58:47 74° 56° (NE) 17:11:00 29.354- 29.394
HORYU 2 23 Jul 17:00:13 17:04:39 65° 74° (ENE) 17:09:07 437.375
BEESAT 23 Jul 17:03:25 17:05:39 13° 298° (WNW) 17:07:54 436.000
AO-85 23 Jul 17:04:51 17:08:01 16° 318° (NW) 17:11:07 145.980
Cubesat XI-IV 23 Jul 17:22:26 17:26:14 20° 63° (ENE) 17:30:04 437.490
BRITE-PL 23 Jul 17:26:08 17:29:32 24° 69° (ENE) 17:32:53 437.365/2234.400
STARS 23 Jul 17:29:23 17:33:51 86° 102° (ESE) 17:38:18 437.465
LilacSat-2 23 Jul 17:41:05 17:43:54 19° 68° (ENE) 17:46:44 437.200
Cosmos 2499 23 Jul 17:44:54 17:53:12 43° 286° (WNW) 18:01:27 435.465 / 435.565
CUTE-I 23 Jul 17:46:20 17:51:04 33° 68° (ENE) 17:55:50 437.470
NOAA 18 23 Jul 17:46:46 17:51:43 35° 67° (ENE) 17:56:41 137.9125
CUBESAT XI-V 23 Jul 17:50:35 17:54:48 35° 97° (E) 17:59:01 437.345
AO-7 23 Jul 18:04:21 18:07:46 13° 272° (W) 18:11:13 29.400- 29.500
GONETS M04 23 Jul 18:05:45 18:12:29 25° 293° (WNW) 18:19:18
PHONESAT 2.4 23 Jul 18:09:39 18:11:25 14° 148° (SSE) 18:13:11 2401.200-2431.200
KKS-1 23 Jul 18:16:53 18:19:39 16° 296° (WNW) 18:22:24 437.445
HO-68 23 Jul 18:18:13 18:21:40 14° 53° (NE) 18:25:07 435.675
NOAA 15 23 Jul 18:19:43 18:24:58 88° 79° (E) 18:30:15 137.62
SO-50 23 Jul 18:20:19 18:24:57 70° 57° (ENE) 18:29:25 436.795
MOZHAYETS 4 23 Jul 18:21:18 18:23:43 14° 296° (WNW) 18:26:08
HORYU 2 23 Jul 18:40:24 18:41:37 11° 270° (W) 18:42:50 437.375
GOMX 1 23 Jul 18:48:49 18:52:57 89° 236° (WSW) 18:57:12 467.674
RS-15 23 Jul 19:00:01 19:10:13 32° 257° (WSW) 19:20:17 29.354- 29.394
Cubesat XI-IV 23 Jul 19:00:38 19:05:53 53° 260° (W) 19:11:10 437.490
CANX-2 23 Jul 19:01:24 19:03:35 14° 65° (ENE) 19:05:47 2200.000
DOVE 4 23 Jul 19:02:39 19:06:45 54° 74° (ENE) 19:11:03 437.250
BRITE-PL 23 Jul 19:04:34 19:07:59 24° 265° (W) 19:11:22 437.365/2234.400
LilacSat-2 23 Jul 19:14:40 19:18:01 28° 264° (W) 19:21:23 437.200
CUTE 1.7 + AOD 2 23 Jul 19:15:01 19:17:46 17° 66° (ENE) 19:20:33 437.475
STRAND 1 23 Jul 19:17:46 19:21:11 18° 92° (E) 19:24:34 437.568
CUTE-I 23 Jul 19:26:21 19:31:03 31° 264° (W) 19:35:48 437.470
NOAA 18 23 Jul 19:27:31 19:32:20 30° 263° (W) 19:37:12 137.9125
CUBESAT XI-V 23 Jul 19:28:27 19:31:58 22° 293° (WNW) 19:35:29 437.345
PCSat 23 Jul 19:32:20 19:36:24 22° 106° (ESE) 19:40:30 145.827
CINEMA 3 23 Jul 19:44:07 19:48:17 44° 72° (ENE) 19:52:42 145.822/145.860
CUBEBUG 2 23 Jul 19:44:20 19:46:44 14° 63° (ENE) 19:49:09 437.445
PHONESAT 2.4 23 Jul 19:44:30 19:47:32 60° 163° (SSE) 19:50:36 2401.200-2431.200
BEESAT 2 23 Jul 19:51:13 19:54:51 36° 115° (ESE) 19:58:31 435.950
BEESAT 3 23 Jul 19:53:05 19:56:59 78° 119° (ESE) 20:00:56 437.485
SEEDS 23 Jul 20:00:27 20:04:22 37° 72° (ENE) 20:08:16 437.485
HO-68 23 Jul 20:01:01 20:08:09 74° 72° (ENE) 20:15:21 435.675
SO-50 23 Jul 20:03:09 20:04:45 12° 253° (WSW) 20:06:20 436.795
YUBILEINY 23 Jul 20:15:12 20:21:56 23° 66° (ENE) 20:28:35 435.215
COMPASS 1 23 Jul 20:19:51 20:23:50 43° 73° (ENE) 20:27:47 437.405
Oscar 11 23 Jul 20:29:51 20:32:53 19° 67° (ENE) 20:35:55 145.826/435.025
CANX-2 23 Jul 20:34:49 20:39:00 51° 261° (W) 20:43:12 2200.000
DOVE 4 23 Jul 20:43:29 20:44:54 11° 271° (W) 20:46:19 437.250
O/OREOS (USA 219) 23 Jul 20:45:05 20:48:00 17° 100° (E) 20:50:55 437.305
CUTE 1.7 + AOD 2 23 Jul 20:49:15 20:53:17 40° 262° (W) 20:57:20 437.475
AAUSAT CUBESAT 2 23 Jul 20:52:02 20:56:13 82° 79° (E) 21:00:23 437.432
STRAND 1 23 Jul 20:55:41 21:00:38 51° 288° (WNW) 21:05:33 437.568
PRISM 23 Jul 20:59:01 21:02:15 22° 96° (E) 21:05:29 437.425
UWE-3 23 Jul 21:04:45 21:09:13 67° 75° (ENE) 21:13:50 435.000/436.395/437.385
M-CUBED/EXP-1 PRIME 23 Jul 21:13:09 21:16:19 28° 64° (ENE) 21:19:44 437.505
PCSat 23 Jul 21:14:12 21:19:25 49° 303° (WNW) 21:24:42 145.827
ZACube-1 23 Jul 21:14:38 21:19:01 56° 74° (ENE) 21:23:30 437.345
FUNcube-1 23 Jul 21:16:01 21:20:23 54° 74° (ENE) 21:24:51 145.935
CUBEBUG 2 23 Jul 21:18:20 21:22:46 59° 260° (W) 21:27:23 437.445
AIST 2 23 Jul 21:19:16 21:21:38 15° 109° (ESE) 21:24:01 435.215
PHONESAT 2.4 23 Jul 21:21:00 21:24:05 71° 359° (N) 21:27:09 2401.200-2431.200
CINEMA 3 23 Jul 21:22:55 21:25:42 16° 269° (W) 21:28:34 145.822/145.860
BEESAT 2 23 Jul 21:29:49 21:32:48 20° 313° (NW) 21:35:48 435.950
HUMSAT D 23 Jul 21:30:16 21:33:11 18° 66° (ENE) 21:36:07 437.325/437.525
BEESAT 3 23 Jul 21:33:42 21:35:10 12° 318° (NW) 21:36:39 437.485
Cosmos 2491 23 Jul 21:34:57 21:42:43 38° 86° (E) 21:50:28 435.465 / 435.565
SEEDS 23 Jul 21:37:23 21:40:11 17° 267° (W) 21:42:59 437.485
AUBIESAT-1 23 Jul 21:42:18 21:45:53 52° 68° (ENE) 21:49:46 437.475
DELFI C3 23 Jul 21:48:46 21:52:40 58° 76° (ENE) 21:56:37 145.870
HO-68 23 Jul 21:51:36 21:56:28 19° 268° (W) 22:01:25 435.675
COMPASS 1 23 Jul 21:57:13 21:59:35 15° 268° (W) 22:01:56 437.405
Oscar 11 23 Jul 22:04:40 22:08:43 38° 262° (W) 22:12:48 145.826/435.025
YUBILEINY 23 Jul 22:10:47 22:19:37 75° 266° (W) 22:28:21 435.215
TIGRISAT 23 Jul 22:14:32 22:16:42 13° 90° (E) 22:18:51 435.000
O/OREOS (USA 219) 23 Jul 22:22:49 22:27:02 41° 296° (WNW) 22:31:17 437.305
UNISAT 6 23 Jul 22:28:29 22:31:55 20° 93° (E) 22:35:18 437.425
ISS 23 Jul 22:32:25 22:35:27 37° 136° (SE) 22:38:29 145.825
Cosmos 2504 23 Jul 22:33:54 22:42:02 56° 77° (ENE) 22:49:30 435.465 / 435.565
PRISM 23 Jul 22:34:05 22:37:31 27° 291° (WNW) 22:40:57 437.425
ESTCUBE 1 23 Jul 22:38:36 22:41:42 19° 66° (ENE) 22:44:48 437.505/2401.250
UWE-3 23 Jul 22:44:54 22:46:09 11° 271° (W) 22:47:23 435.000/436.395/437.385
M-CUBED/EXP-1 PRIME 23 Jul 22:48:22 22:50:56 18° 262° (W) 22:53:39 437.505
ZACube-1 23 Jul 22:53:31 22:55:39 13° 270° (W) 22:57:50 437.345
FUNcube-1 23 Jul 22:54:41 22:56:57 14° 270° (W) 22:59:14 145.935
AIST 2 23 Jul 22:55:46 22:59:43 46° 305° (NW) 23:03:43 435.215
PHONESAT 2.4 23 Jul 22:57:34 23:00:38 69° 196° (SSW) 23:03:42 2401.200-2431.200
HUMSAT D 23 Jul 23:04:28 23:08:30 39° 262° (W) 23:12:33 437.325/437.525
ANTELSAT 23 Jul 23:06:18 23:10:51 51° 99° (E) 23:15:17 437.575/2403.000
VELOX 1 23 Jul 23:11:38 23:15:07 24° 68° (ENE) 23:18:38 145.980
CUBEBUG 1 23 Jul 23:22:48 23:26:42 34° 71° (ENE) 23:30:37 437.445
Cosmos 2491 23 Jul 23:31:06 23:39:19 45° 285° (WNW) 23:47:37 435.465 / 435.565
SPROUT 23 Jul 23:36:19 23:39:22 20° 67° (ENE) 23:42:27 437.525
QB50P2 23 Jul 23:40:14 23:43:15 18° 94° (E) 23:46:15 145.880/145.840
POLYITAN 1 23 Jul 23:42:51 23:45:55 19° 94° (E) 23:48:58 437.675
TIGRISAT 23 Jul 23:49:10 23:53:46 58° 286° (WNW) 23:58:15 435.000
AO-85 23 Jul 23:54:56 23:59:17 58° 55° (NE) 00:03:17 145.980
AISAT 23 Jul 23:54:58 23:59:20 75° 74° (ENE) 00:03:44 437.250
UNISAT 6 24 Jul 00:04:26 00:08:45 38° 289° (WNW) 00:12:58 437.425
JAS-2 24 Jul 00:07:02 00:08:06 11° 90° (E) 00:09:11 435.910
DX 1 24 Jul 00:08:35 00:12:53 75° 76° (ENE) 00:17:13 434.975-435.025
ISS 24 Jul 00:09:07 00:11:56 26° 333° (NNW) 00:14:45 145.825
YUBILEINY 24 Jul 00:11:22 00:14:43 13° 286° (WNW) 00:18:05 435.215
ESTCUBE 1 24 Jul 00:13:57 00:18:11 41° 261° (W) 00:22:27 437.505/2401.250
50 SAT 24 Jul 00:15:15 00:18:52 55° 260° (W) 00:22:29 437.505
Cosmos 2504 24 Jul 00:28:13 00:34:47 28° 278° (W) 00:41:00 435.465 / 435.565
NANOSAT C BR1 24 Jul 00:28:50 00:33:04 59° 100° (E) 00:37:16 145.865
UKube-1 24 Jul 00:29:42 00:34:00 80° 257° (WSW) 00:38:19 .
PHONESAT 2.4 24 Jul 00:34:43 00:36:49 17° 211° (SSW) 00:38:55 2401.200-2431.200
DUCHIFAT 1 24 Jul 00:35:02 00:39:18 66° 102° (ESE) 00:43:31 145.980
ANTELSAT 24 Jul 00:44:14 00:47:06 16° 296° (WNW) 00:49:55 437.575/2403.000
TISAT 1 24 Jul 00:45:29 00:48:59 26° 69° (ENE) 00:52:31 437.305
VELOX 1 24 Jul 00:47:37 00:51:26 29° 263° (W) 00:55:18 145.980
QB50P1 24 Jul 00:48:55 00:53:13 76° 285° (WNW) 00:57:28 145.935-145.965
POPSAT HIP 1 24 Jul 00:55:01 00:59:17 65° 285° (WNW) 01:03:31 437.405
CUBEBUG 1 24 Jul 00:59:58 01:03:04 19° 266° (W) 01:06:10 437.445
BUGSAT 1 24 Jul 01:05:46 01:10:00 64° 101° (E) 01:14:13 437.445
AIST 1 24 Jul 01:06:25 01:10:39 51° 80° (E) 01:14:54
SPROUT 24 Jul 01:11:11 01:15:03 34° 262° (W) 01:19:00 437.525
ITUPSAT 1 24 Jul 01:15:08 01:17:05 12° 61° (ENE) 01:19:02 437.325
QB50P2 24 Jul 01:15:13 01:19:09 35° 289° (WNW) 01:23:03 145.880/145.840
POLYITAN 1 24 Jul 01:17:53 01:21:48 35° 289° (WNW) 01:25:42 437.675
AO-85 24 Jul 01:37:36 01:39:02 12° 254° (WSW) 01:40:27 145.980
Oscar 19 24 Jul 01:46:40 01:51:06 28° 96° (E) 01:55:30 437.125/150
Cosmos 2499 24 Jul 01:47:57 01:50:36 12° 58° (ENE) 01:53:12 435.465 / 435.565
ISS 24 Jul 01:48:23 01:49:15 11° 352° (N) 01:50:06 145.825
JAS-2 24 Jul 01:48:29 01:53:43 81° 287° (WNW) 01:59:21 435.910
NANOSAT C BR1 24 Jul 02:06:32 02:08:16 12° 297° (WNW) 02:10:00 145.865
SWISSCUBE 24 Jul 02:07:19 02:11:53 46° 71° (ENE) 02:16:29 437.505
DUCHIFAT 1 24 Jul 02:13:09 02:14:25 11° 297° (WNW) 02:15:41 145.980
GONETS M04 24 Jul 02:18:03 02:25:47 33° 71° (ENE) 02:33:29
TISAT 1 24 Jul 02:21:11 02:24:34 24° 265° (W) 02:27:59 437.305
BEESAT 24 Jul 02:28:56 02:33:41 70° 74° (ENE) 02:38:28 436.000
Gurwin Techsat 1B 24 Jul 02:36:07 02:41:02 37° 98° (E) 02:45:55 435.225
BUGSAT 1 24 Jul 02:43:25 02:44:49 11° 297° (WNW) 02:46:12 437.445
AIST 1 24 Jul 02:46:03 02:47:44 12° 275° (W) 02:49:26
ITUPSAT 1 24 Jul 02:49:28 02:54:16 75° 257° (WSW) 02:59:06 437.325
ITAMSAT 1 24 Jul 03:12:49 03:17:09 26° 95° (E) 03:21:26 435.822/435.867
ISS 24 Jul 03:25:22 03:26:51 12° 13° (NNE) 03:28:19 145.825
Oscar 19 24 Jul 03:25:48 03:30:24 34° 292° (WNW) 03:35:00 437.125/150
KKS-1 24 Jul 03:36:13 03:40:19 39° 71° (ENE) 03:44:28 437.445
Cosmos 2499 24 Jul 03:37:31 03:45:30 71° 80° (E) 03:52:49 435.465 / 435.565
MOZHAYETS 4 24 Jul 03:43:13 03:47:40 48° 73° (ENE) 03:52:08
SWISSCUBE 24 Jul 03:46:41 03:49:53 18° 267° (W) 03:53:07 437.505
DANDE 24 Jul 03:58:06 04:01:37 16° 92° (E) 04:04:42 436.750
AO-7 24 Jul 04:08:24 04:16:07 40° 99° (E) 04:23:45 29.400- 29.500
CUSAT 1 24 Jul 04:09:43 04:14:14 42° 98° (E) 04:17:44 437.405
BEESAT 24 Jul 04:10:20 04:11:55 11° 270° (W) 04:13:31 436.000
BEESAT 2 24 Jul 04:10:20 04:13:16 19° 47° (NE) 04:16:12 435.950
BEESAT 3 24 Jul 04:11:17 04:14:54 33° 52° (NE) 04:18:30 437.485
GONETS M04 24 Jul 04:14:27 04:22:53 53° 270° (W) 04:31:21
Gurwin Techsat 1B 24 Jul 04:16:23 04:20:48 27° 294° (WNW) 04:25:11 435.225
PCSat 24 Jul 04:20:31 04:24:09 18° 45° (NE) 04:27:47 145.827
STARS 24 Jul 04:24:48 04:29:09 66° 74° (ENE) 04:33:31 437.465
ITAMSAT 1 24 Jul 04:51:56 04:56:39 36° 291° (WNW) 05:01:20 435.822/435.867
CUBESAT XI-V 24 Jul 04:53:01 04:57:05 31° 70° (ENE) 05:01:09 437.345
HORYU 2 24 Jul 04:53:51 04:55:59 13° 92° (E) 04:58:06 437.375
ISS 24 Jul 05:00:52 05:03:58 40° 32° (NNE) 05:07:04 145.825
JUGNU 24 Jul 05:04:42 05:05:23 10° 178° (S) 05:06:04 437.505
KKS-1 24 Jul 05:14:00 05:17:02 18° 266° (W) 05:20:05 437.445
MOZHAYETS 4 24 Jul 05:22:15 05:25:04 16° 268° (W) 05:27:54
Cosmos 2499 24 Jul 05:32:19 05:37:36 20° 281° (W) 05:42:40 435.465 / 435.565
DANDE 24 Jul 05:38:06 05:44:18 59° 280° (W) 05:48:58 436.750
AIST 2 24 Jul 05:41:39 05:42:41 11° 40° (NE) 05:43:42 435.215
BEESAT 2 24 Jul 05:47:30 05:51:15 40° 244° (WSW) 05:54:59 435.950
BEESAT 3 24 Jul 05:49:25 05:52:21 20° 248° (WSW) 05:55:17 437.485
CUSAT 1 24 Jul 05:54:26 05:56:07 12° 285° (WNW) 05:57:38 437.405
AO-7 24 Jul 06:01:05 06:08:54 46° 297° (WNW) 06:16:41 29.400- 29.500
PCSat 24 Jul 06:02:43 06:08:09 76° 244° (WSW) 06:13:33 145.827
STARS 24 Jul 06:05:19 06:05:55 10° 270° (W) 06:06:31 437.465
CUTE-I 24 Jul 06:05:51 06:08:17 13° 90° (E) 06:10:43 437.470
NOAA 18 24 Jul 06:10:53 06:14:01 15° 91° (E) 06:17:08 137.9125
HORYU 2 24 Jul 06:28:28 06:32:51 54° 287° (WNW) 06:37:12 437.375
CUBESAT XI-V 24 Jul 06:30:43 06:34:28 24° 265° (W) 06:38:13 437.345
STRAND 1 24 Jul 06:32:33 06:36:40 25° 66° (ENE) 06:40:47 437.568
NOAA 15 24 Jul 06:36:01 06:40:49 35° 98° (E) 06:45:36 137.62
ISS 24 Jul 06:37:42 06:40:13 20° 228° (SW) 06:42:43 145.825
LilacSat-2 24 Jul 06:48:35 06:52:05 31° 97° (E) 06:55:31 437.200
GOMX 1 24 Jul 06:50:33 06:54:58 31° 96° (E) 06:59:36 467.674
O/OREOS (USA 219) 24 Jul 06:54:24 06:58:24 30° 61° (ENE) 07:02:24 437.305
DOVE 4 24 Jul 07:02:23 07:06:02 19° 93° (E) 07:09:45 437.250
BRITE-PL 24 Jul 07:07:44 07:12:28 85° 282° (WNW) 07:17:35 437.365/2234.400
RS-15 24 Jul 07:08:11 07:18:58 51° 110° (ESE) 07:30:17 29.354- 29.394
SRMSAT 24 Jul 07:14:42 07:15:15 10° 177° (S) 07:15:48 437.500
AIST 2 24 Jul 07:17:38 07:21:50 82° 59° (ENE) 07:26:00 435.215
Cubesat XI-IV 24 Jul 07:18:39 07:24:00 67° 102° (ESE) 07:29:18 437.490
HO-68 24 Jul 07:32:35 07:35:47 13° 89° (E) 07:38:58 435.675
CINEMA 3 24 Jul 07:41:05 07:43:31 13° 90° (E) 07:45:56 145.822/145.860
CUTE-I 24 Jul 07:43:31 07:48:51 73° 286° (WNW) 07:54:09 437.470
Cosmos 2491 24 Jul 07:47:01 07:52:25 17° 62° (ENE) 07:57:47 435.465 / 435.565
PRISM 24 Jul 07:48:29 07:50:53 15° 65° (ENE) 07:53:17 437.425
NOAA 18 24 Jul 07:49:38 07:55:09 68° 287° (WNW) 08:00:37 137.9125
STRAND 1 24 Jul 08:10:49 08:15:36 39° 262° (W) 08:20:26 437.568
NOAA 15 24 Jul 08:16:02 08:20:26 28° 294° (WNW) 08:24:51 137.62
CANX-2 24 Jul 08:21:03 08:24:40 27° 96° (E) 08:28:15 2200.000
LilacSat-2 24 Jul 08:23:31 08:26:08 18° 292° (WNW) 08:28:43 437.200
GOMX 1 24 Jul 08:28:39 08:32:57 30° 290° (WNW) 08:37:29 467.674
SO-50 24 Jul 08:33:42 08:37:53 29° 113° (ESE) 08:42:03 436.795
O/OREOS (USA 219) 24 Jul 08:33:58 08:37:40 25° 257° (WSW) 08:41:22 437.305
CUTE 1.7 + AOD 2 24 Jul 08:35:00 08:38:52 34° 97° (E) 08:42:41 437.475
AAUSAT CUBESAT 2 24 Jul 08:36:54 08:38:54 13° 92° (E) 08:40:53 437.432
DOVE 4 24 Jul 08:39:00 08:43:53 49° 287° (WNW) 08:48:56 437.250
UWE-3 24 Jul 08:56:48 08:59:33 15° 91° (E) 09:02:13 435.000/436.395/437.385
Cubesat XI-IV 24 Jul 09:00:16 09:03:28 16° 299° (WNW) 09:06:40 437.490
ZACube-1 24 Jul 09:06:13 09:07:53 12° 89° (E) 09:09:32 437.345
FUNcube-1 24 Jul 09:07:32 09:08:53 11° 89° (E) 09:10:15 145.935
CUBEBUG 2 24 Jul 09:10:20 09:14:36 32° 96° (E) 09:18:46 437.445
TIGRISAT 24 Jul 09:13:19 09:14:49 11° 61° (ENE) 09:16:19 435.000
YUBILEINY 24 Jul 09:15:44 09:22:38 27° 82° (E) 09:29:33 435.215
CINEMA 3 24 Jul 09:16:04 09:21:03 67° 285° (WNW) 09:26:01 145.822/145.860
HO-68 24 Jul 09:17:11 09:24:26 84° 105° (ESE) 09:31:38 435.675
RS-15 24 Jul 09:20:20 09:31:27 51° 313° (NW) 09:43:13 29.354- 29.394
SEEDS 24 Jul 09:20:23 09:24:35 84° 102° (ESE) 09:28:44 437.485
PRISM 24 Jul 09:21:59 09:25:51 41° 261° (W) 09:29:43 437.425
UNISAT 6 24 Jul 09:26:50 09:29:48 17° 65° (ENE) 09:32:49 437.425
COMPASS 1 24 Jul 09:38:42 09:42:51 86° 287° (WNW) 09:46:59 437.405
Cosmos 2491 24 Jul 09:41:46 09:50:34 87° 82° (E) 09:59:22 435.465 / 435.565
Oscar 11 24 Jul 09:52:32 09:56:36 39° 98° (E) 10:00:38 145.826/435.025
CANX-2 24 Jul 09:57:02 10:00:23 23° 291° (WNW) 10:03:43 2200.000
ANTELSAT 24 Jul 10:03:52 10:08:08 40° 71° (ENE) 10:12:32 437.575/2403.000
AAUSAT CUBESAT 2 24 Jul 10:10:41 10:14:37 45° 287° (WNW) 10:18:31 437.432
CUTE 1.7 + AOD 2 24 Jul 10:11:28 10:14:27 19° 293° (WNW) 10:17:24 437.475
SO-50 24 Jul 10:13:47 10:18:15 35° 309° (NW) 10:22:43 436.795
M-CUBED/EXP-1 PRIME 24 Jul 10:26:37 10:30:46 31° 101° (ESE) 10:34:55 437.505
UWE-3 24 Jul 10:31:47 10:36:16 49° 287° (WNW) 10:40:38 435.000/436.395/437.385
QB50P2 24 Jul 10:33:07 10:35:09 13° 64° (ENE) 10:37:11 145.880/145.840
POLYITAN 1 24 Jul 10:35:40 10:37:47 14° 64° (ENE) 10:39:53 437.675
ZACube-1 24 Jul 10:40:06 10:44:34 60° 286° (WNW) 10:48:56 437.345
FUNcube-1 24 Jul 10:41:05 10:45:34 63° 285° (WNW) 10:49:55 145.935
TIGRISAT 24 Jul 10:46:14 10:50:48 76° 257° (WSW) 10:55:29 435.000
CUBEBUG 2 24 Jul 10:47:11 10:51:02 25° 292° (WNW) 10:54:48 437.445
HUMSAT D 24 Jul 10:48:48 10:52:39 34° 97° (E) 10:56:25 437.325/437.525
AUBIESAT-1 24 Jul 10:55:27 10:59:58 51° 104° (ESE) 11:04:28 437.475
UNISAT 6 24 Jul 11:01:40 11:06:05 48° 261° (W) 11:10:38 437.425
DELFI C3 24 Jul 11:01:52 11:05:47 71° 285° (WNW) 11:09:41 145.870
HO-68 24 Jul 11:06:32 11:11:16 19° 304° (NW) 11:16:01 435.675
Cosmos 2504 24 Jul 11:09:20 11:17:41 50° 89° (E) 11:26:07 435.465 / 435.565
YUBILEINY 24 Jul 11:10:02 11:18:42 63° 281° (W) 11:27:28 435.215
NANOSAT C BR1 24 Jul 11:19:58 11:23:52 38° 71° (ENE) 11:27:48 145.865
DUCHIFAT 1 24 Jul 11:25:52 11:29:49 41° 72° (ENE) 11:33:49 145.980
Oscar 11 24 Jul 11:29:32 11:32:25 18° 294° (WNW) 11:35:17 145.826/435.025
RS-15 24 Jul 11:39:15 11:47:57 22° 345° (NNW) 11:56:54 29.354- 29.394
QB50P1 24 Jul 11:40:02 11:44:14 70° 75° (ENE) 11:48:29 145.935-145.965
Cosmos 2491 24 Jul 11:40:53 11:46:10 18° 282° (WNW) 11:51:28 435.465 / 435.565
ANTELSAT 24 Jul 11:41:42 11:45:00 19° 267° (W) 11:48:21 437.575/2403.000
POPSAT HIP 1 24 Jul 11:46:08 11:50:21 81° 76° (ENE) 11:54:39 437.405
50 SAT 24 Jul 11:46:36 11:47:58 12° 92° (E) 11:49:20 437.505
AISAT 24 Jul 11:47:18 11:49:55 15° 92° (E) 11:52:33 437.250
BUGSAT 1 24 Jul 11:54:36 11:58:21 37° 71° (ENE) 12:02:10 437.445
DX 1 24 Jul 11:59:13 12:01:28 14° 92° (E) 12:03:41 434.975-435.025
JAS-2 24 Jul 11:59:50 12:05:32 38° 70° (ENE) 12:10:40 435.910
M-CUBED/EXP-1 PRIME 24 Jul 12:01:08 12:05:08 29° 296° (WNW) 12:09:10 437.505
QB50P2 24 Jul 12:06:19 12:10:28 54° 260° (W) 12:14:40 145.880/145.840
ESTCUBE 1 24 Jul 12:07:03 12:11:19 42° 99° (E) 12:15:33 437.505/2401.250
POLYITAN 1 24 Jul 12:08:58 12:13:06 53° 260° (W) 12:17:18 437.675
UKube-1 24 Jul 12:18:40 12:21:36 18° 94° (E) 12:24:33 .
HUMSAT D 24 Jul 12:25:01 12:28:00 19° 293° (WNW) 12:30:58 437.325/437.525
AUBIESAT-1 24 Jul 12:30:53 12:34:01 18° 300° (WNW) 12:37:09 437.475
VELOX 1 24 Jul 12:37:48 12:42:09 52° 100° (E) 12:46:29 145.980
CUBEBUG 1 24 Jul 12:47:44 12:52:09 81° 103° (ESE) 12:56:34 437.445
NANOSAT C BR1 24 Jul 12:56:59 12:59:44 17° 267° (W) 13:02:30 145.865
SPROUT 24 Jul 12:57:36 13:01:41 40° 98° (E) 13:05:45 437.525
Oscar 19 24 Jul 13:02:35 13:07:15 37° 69° (ENE) 13:11:56 437.125/150
DUCHIFAT 1 24 Jul 13:03:10 13:05:42 15° 268° (W) 13:08:13 145.980
Cosmos 2504 24 Jul 13:03:16 13:11:14 37° 288° (WNW) 13:19:17 435.465 / 435.565
YUBILEINY 24 Jul 13:14:59 13:17:31 11° 303° (WNW) 13:20:06 435.215
50 SAT 24 Jul 13:18:25 13:21:47 37° 287° (WNW) 13:25:06 437.505
AO-7 24 Jul 13:21:25 13:23:17 11° 43° (NE) 13:25:10 29.400- 29.500
AISAT 24 Jul 13:22:21 13:26:37 46° 288° (WNW) 13:30:53 437.250
BUGSAT 1 24 Jul 13:31:21 13:33:52 16° 267° (W) 13:36:26 437.445
DX 1 24 Jul 13:33:41 13:37:55 50° 287° (WNW) 13:42:08 434.975-435.025
AIST 1 24 Jul 13:35:01 13:38:44 31° 91° (E) 13:42:30
ESTCUBE 1 24 Jul 13:44:47 13:47:47 18° 294° (WNW) 13:50:48 437.505/2401.250
JAS-2 24 Jul 13:45:15 13:50:37 29° 263° (W) 13:55:33 435.910
UKube-1 24 Jul 13:53:46 13:57:46 38° 289° (WNW) 14:01:45 .
Gurwin Techsat 1B 24 Jul 13:56:10 14:01:19 54° 72° (ENE) 14:06:31 435.225
RS-15 24 Jul 13:57:11 14:06:38 24° 22° (NNE) 14:16:07 29.354- 29.394
TISAT 1 24 Jul 14:04:56 14:09:06 53° 100° (E) 14:13:15 437.305
AO-85 24 Jul 14:07:37 14:12:13 29° 112° (ESE) 14:16:42 145.980
SWISSCUBE 24 Jul 14:10:26 14:12:19 12° 91° (E) 14:14:12 437.505
VELOX 1 24 Jul 14:15:43 14:18:10 15° 296° (WNW) 14:20:37 145.980
ITAMSAT 1 24 Jul 14:29:41 14:34:28 37° 69° (ENE) 14:39:15 435.822/435.867
BEESAT 24 Jul 14:30:57 14:34:18 19° 93° (E) 14:37:37 436.000
SPROUT 24 Jul 14:34:27 14:37:18 17° 294° (WNW) 14:40:09 437.525
